AMX382 SLLP-SPZO

Flight info

Callsign AMX382
Flight time N/A
Altitude 36000
Route ELAKO UM657 JUL UV11 ILMOX
Aircraft B738/M-SDGIJ1LRWY/SB1

Departure

Time N/A
Airport El Alto International Airport (SLLP)

Arrival

Time 2026-04-25 05:12
Airport Alejandro Velasco Astete International Airport (SPZO)
Time Latitude Longitude Altitude Speed Heading
2026-04-25 05:12 -13.53778 -71.94403 10835 ft 0 kts 114°
2026-04-25 05:26 -13.53778 -71.94402 10835 ft 0 kts 114°
2026-04-25 05:27 -13.53774 -71.94410 10835 ft 2 kts 131°
2026-04-25 05:27 -13.53764 -71.94421 10836 ft 2 kts 126°
2026-04-25 05:27 -13.53756 -71.94433 10836 ft 1 kts 127°
2026-04-25 05:28 -13.53752 -71.94437 10836 ft 0 kts 101°
2026-04-25 05:28 -13.53753 -71.94443 10837 ft 0 kts 48°
2026-04-25 05:28 -13.53757 -71.94446 10837 ft 0 kts
2026-04-25 05:28 -13.53763 -71.94446 10837 ft 1 kts
2026-04-25 05:29 -13.53764 -71.94446 10837 ft 0 kts
2026-04-25 05:31 -13.53761 -71.94446 10837 ft 4 kts
2026-04-25 05:31 -13.53699 -71.94448 10836 ft 12 kts 341°
2026-04-25 05:32 -13.53649 -71.94537 10840 ft 16 kts 278°
2026-04-25 05:32 -13.53635 -71.94659 10846 ft 18 kts 276°
2026-04-25 05:32 -13.53618 -71.94801 10854 ft 20 kts 277°
2026-04-25 05:32 -13.53599 -71.94955 10863 ft 22 kts 270°
2026-04-25 05:33 -13.53590 -71.95077 10872 ft 14 kts 287°
2026-04-25 05:33 -13.53581 -71.95178 10880 ft 14 kts 275°
2026-04-25 05:33 -13.53570 -71.95280 10887 ft 15 kts 276°
2026-04-25 05:33 -13.53557 -71.95386 10892 ft 12 kts 281°
2026-04-25 05:34 -13.53505 -71.95434 10893 ft 13 kts 350°
2026-04-25 05:34 -13.53413 -71.95365 10884 ft 24 kts 91°
2026-04-25 05:34 -13.53443 -71.95139 10872 ft 43 kts 97°
2026-04-25 05:34 -13.53494 -71.94620 10843 ft 101 kts 97°
2026-04-25 05:35 -13.53587 -71.93726 10803 ft 151 kts 95°
2026-04-25 05:35 -13.53708 -71.92492 10760 ft 191 kts 95°
2026-04-25 05:35 -13.53890 -71.91124 11168 ft 193 kts 97°
2026-04-25 05:35 -13.54064 -71.89748 11619 ft 199 kts 92°
2026-04-25 05:36 -13.54199 -71.88283 12011 ft 209 kts 98°
2026-04-25 05:36 -13.54652 -71.86852 12418 ft 221 kts 115°
2026-04-25 05:36 -13.55428 -71.85428 12789 ft 234 kts 117°
2026-04-25 05:36 -13.56188 -71.83889 13114 ft 250 kts 113°
2026-04-25 05:37 -13.56916 -71.82189 13333 ft 272 kts 111°
2026-04-25 05:37 -13.57643 -71.80352 13894 ft 280 kts 110°
2026-04-25 05:37 -13.58365 -71.78456 14288 ft 296 kts 110°
2026-04-25 05:37 -13.59124 -71.76450 14839 ft 306 kts 109°
2026-04-25 05:38 -13.59951 -71.74386 15276 ft 320 kts 115°
2026-04-25 05:38 -13.61199 -71.72460 15734 ft 334 kts 129°
2026-04-25 05:38 -13.62828 -71.70690 16149 ft 350 kts 133°
2026-04-25 05:38 -13.64604 -71.68871 16554 ft 364 kts 133°
2026-04-25 05:39 -13.66414 -71.67011 16964 ft 377 kts 133°
2026-04-25 05:39 -13.68258 -71.65083 17630 ft 382 kts 132°
2026-04-25 05:39 -13.70189 -71.63158 18346 ft 386 kts 137°
2026-04-25 05:39 -13.72397 -71.61594 18972 ft 393 kts 152°
2026-04-25 05:40 -13.75028 -71.60786 19540 ft 400 kts 170°
2026-04-25 05:40 -13.77824 -71.60531 20051 ft 404 kts 175°
2026-04-25 05:40 -13.80671 -71.60413 20552 ft 409 kts 176°
2026-04-25 05:40 -13.83529 -71.60332 21075 ft 412 kts 176°
2026-04-25 05:41 -13.86375 -71.60305 21576 ft 417 kts 181°
2026-04-25 05:41 -13.89302 -71.60683 22087 ft 423 kts 190°
2026-04-25 05:41 -13.92149 -71.61526 22610 ft 427 kts 197°
2026-04-25 05:41 -13.94939 -71.62601 23134 ft 431 kts 200°
2026-04-25 05:42 -13.97708 -71.63762 23669 ft 434 kts 201°
2026-04-25 05:42 -14.00506 -71.64966 24206 ft 438 kts 201°
2026-04-25 05:42 -14.03367 -71.66165 24725 ft 442 kts 199°
2026-04-25 05:42 -14.06306 -71.67124 25241 ft 444 kts 193°
2026-04-25 05:43 -14.09324 -71.67834 25770 ft 445 kts 189°
2026-04-25 05:43 -14.12360 -71.68416 26272 ft 448 kts 188°
2026-04-25 05:43 -14.15472 -71.68960 26752 ft 451 kts 187°
2026-04-25 05:43 -14.18583 -71.69498 27213 ft 455 kts 188°
2026-04-25 05:44 -14.21731 -71.70058 27686 ft 458 kts 188°
2026-04-25 05:44 -14.24857 -71.70634 28166 ft 460 kts 188°
2026-04-25 05:44 -14.28000 -71.71228 28630 ft 463 kts 188°
2026-04-25 05:44 -14.31218 -71.71849 29073 ft 467 kts 189°
2026-04-25 05:45 -14.34437 -71.72477 29518 ft 470 kts 189°
2026-04-25 05:45 -14.37657 -71.73112 29906 ft 474 kts 189°
2026-04-25 05:45 -14.40901 -71.73756 30297 ft 478 kts 189°
2026-04-25 05:45 -14.44183 -71.74411 30739 ft 481 kts 189°
2026-04-25 05:46 -14.47475 -71.75070 31397 ft 478 kts 190°
2026-04-25 05:46 -14.50713 -71.75719 32021 ft 476 kts 190°
2026-04-25 05:46 -14.53988 -71.76377 32596 ft 475 kts 190°
2026-04-25 05:46 -14.57249 -71.76998 33137 ft 474 kts 188°
2026-04-25 05:47 -14.60526 -71.77445 33603 ft 474 kts 184°
2026-04-25 05:47 -14.63807 -71.77573 34132 ft 472 kts 178°
2026-04-25 05:47 -14.67078 -71.77354 34731 ft 468 kts 172°
2026-04-25 05:47 -14.70294 -71.76790 35295 ft 465 kts 166°
2026-04-25 05:48 -14.73410 -71.75899 35618 ft 467 kts 160°
2026-04-25 05:48 -14.76459 -71.74669 35925 ft 468 kts 154°
2026-04-25 05:48 -14.79209 -71.72952 35958 ft 467 kts 138°
2026-04-25 05:48 -14.81418 -71.70507 35983 ft 458 kts 125°
2026-04-25 05:49 -14.83201 -71.67825 35978 ft 455 kts 121°
2026-04-25 05:49 -14.86716 -71.62365 35979 ft 456 kts 122°
2026-04-25 05:50 -14.89735 -71.56593 35980 ft 455 kts 113°
2026-04-25 05:50 -14.91811 -71.51588 35974 ft 455 kts 111°
2026-04-25 05:51 -14.94542 -71.44663 35964 ft 454 kts 111°
2026-04-25 05:51 -14.96932 -71.38650 35950 ft 453 kts 111°
2026-04-25 05:52 -14.99348 -71.32645 35932 ft 453 kts 111°
2026-04-25 05:52 -15.01772 -71.26663 35912 ft 452 kts 111°
2026-04-25 05:53 -15.04216 -71.20647 35909 ft 454 kts 111°
2026-04-25 05:53 -15.06667 -71.14625 35912 ft 453 kts 112°
2026-04-25 05:54 -15.09633 -71.08937 35906 ft 454 kts 127°
2026-04-25 05:54 -15.11823 -71.06568 35920 ft 456 kts 139°
2026-04-25 05:54 -15.17264 -71.03138 35957 ft 459 kts 155°
2026-04-25 05:55 -15.23322 -71.01066 35990 ft 459 kts 166°
2026-04-25 05:55 -15.29584 -70.99768 35988 ft 460 kts 169°
2026-04-25 05:56 -15.35910 -70.98592 35979 ft 460 kts 169°
2026-04-25 05:56 -15.42214 -70.97378 35960 ft 460 kts 169°
2026-04-25 05:57 -15.48507 -70.96110 35950 ft 461 kts 168°
2026-04-25 05:57 -15.54813 -70.94807 35940 ft 460 kts 168°
2026-04-25 05:58 -15.61080 -70.93496 35949 ft 459 kts 168°
2026-04-25 05:58 -15.67387 -70.92170 35947 ft 459 kts 168°
2026-04-25 05:59 -15.73667 -70.90846 35948 ft 459 kts 168°
2026-04-25 05:59 -15.79912 -70.89529 35954 ft 461 kts 168°
2026-04-25 06:00 -15.86202 -70.88200 35958 ft 461 kts 168°
2026-04-25 06:00 -15.92533 -70.86863 35962 ft 460 kts 168°
2026-04-25 06:01 -15.98797 -70.85541 35970 ft 459 kts 168°
2026-04-25 06:01 -16.05085 -70.84210 35964 ft 459 kts 168°
2026-04-25 06:02 -16.11340 -70.82886 35936 ft 459 kts 168°
2026-04-25 06:02 -16.17628 -70.81554 35929 ft 460 kts 168°